Powrót do katalogu

STARLINK-1276

AktywnyŁącznośćVLEO
NORAD 45368·PAYLOAD·🇺🇸 United States

Wystrzelony Mar 18, 2020 z Cape Canaveral Space Force Station

Loading…

Następne Przeloty (najbliższe 24 godziny)

TLE

ŚwieżeSource: CelesTrak SupGP

Epoka: Sep 15, 2026, 00:13 UTC

1 45368C 20019J   26258.00951389 -.00014430  00000+0 -68948-3 0  2585
2 45368  53.0719  26.2133 0000797  57.4196 359.9403 15.18515193    18

Śledź STARLINK-1276 w czasie rzeczywistym z AllMySat

Download on the App Store